Terminal Aerodrome Forecast
Issued by NWS Twin Cities, MN

Home | Current Version | Previous Version | Graphics & Text | Print | Product List | Glossary On
Versions: 1 2 3 4 5 6 7 8 9 10 11 12 13 14 15 16 17 18 19 20
552
FTUS43 KMPX 170719 AAA
TAFEAU
TAF AMD
KEAU 170719Z 1707/1806 13010KT 6SM BR VCSH SCT005 BKN015
     FM171400 19008KT 6SM BR VCSH OVC007
     FM171600 23010G17KT 4SM -SHRA BR OVC007
     FM172200 31014G21KT P6SM OVC010
     FM180300 32008KT P6SM SCT015 BKN040=

USA.gov is the U.S. government's official web portal to all federal, state and local government web resources and services.